contact:dominique.lefevre@mio.osupytheas.fr, maurice.libes@osupytheas.fr, didier.mallarino@osupytheas.fr
Project:EMSO http://www.emso-fr.org/EMSO-France
Depth: 2436.0 m
Title:EMSO Ligure Ouest : Data MII capteur MICROCAT
DateTime_Computer,Latitude,Longitude,Temperature,Conductivity,Pressure,DateTime_Instrument
DateTime_Computer,Latitude,Longitude,degC,S m-1,dbar,DateTime_Instrument
2022-01-01T00:02:10Z,42.805,6.029,13.2998,4.60019,2470.227,2022-1-01T02:03:40Z
2022-01-01T00:05:13Z,42.805,6.029,13.2996,4.60021,2470.217,2022-1-01T02:06:43Z
2022-01-01T00:08:16Z,42.805,6.029,13.2998,4.60019,2470.227,2022-1-01T02:09:46Z
2022-01-01T00:11:19Z,42.805,6.029,13.2996,4.60019,2470.203,2022-1-01T02:12:49Z
2022-01-01T00:14:22Z,42.805,6.029,13.2998,4.60019,2470.227,2022-1-01T02:15:52Z
2022-01-01T00:17:25Z,42.805,6.029,13.2996,4.60019,2470.227,2022-1-01T02:18:55Z
2022-01-01T00:20:28Z,42.805,6.029,13.3000,4.60021,2470.18,2022-1-01T02:21:58Z
2022-01-01T00:23:32Z,42.805,6.029,13.2999,4.60021,2470.217,2022-1-01T02:25:01Z
2022-01-01T00:26:35Z,42.805,6.029,13.2998,4.60021,2470.24,2022-1-01T02:28:04Z
2022-01-01T00:29:38Z,42.805,6.029,13.2996,4.60020,2470.217,2022-1-01T02:31:08Z
2022-01-01T00:32:41Z,42.805,6.029,13.2998,4.60020,2470.217,2022-1-01T02:34:11Z
2022-01-01T00:35:44Z,42.805,6.029,13.2995,4.60021,2470.227,2022-1-01T02:37:14Z
2022-01-01T00:38:47Z,42.805,6.029,13.2996,4.60019,2470.203,2022-1-01T02:40:17Z
2022-01-01T00:41:50Z,42.805,6.029,13.2995,4.60020,2470.25,2022-1-01T02:43:20Z
2022-01-01T00:44:53Z,42.805,6.029,13.2998,4.60021,2470.25,2022-1-01T02:46:23Z
2022-01-01T00:47:56Z,42.805,6.029,13.2997,4.60025,2470.203,2022-1-01T02:49:26Z
2022-01-01T00:51:00Z,42.805,6.029,13.2997,4.60020,2470.217,2022-1-01T02:52:29Z
2022-01-01T00:54:03Z,42.805,6.029,13.2999,4.60021,2470.194,2022-1-01T02:55:33Z
2022-01-01T00:57:06Z,42.805,6.029,13.2998,4.60021,2470.203,2022-1-01T02:58:36Z
2022-01-01T01:00:09Z,42.805,6.029,13.3001,4.60021,2470.227,2022-1-01T03:01:39Z
2022-01-01T01:03:12Z,42.805,6.029,13.2996,4.60019,2470.203,2022-1-01T03:04:42Z
2022-01-01T01:06:15Z,42.805,6.029,13.2998,4.60019,2470.24,2022-1-01T03:07:45Z
2022-01-01T01:09:18Z,42.805,6.029,13.2996,4.60020,2470.227,2022-1-01T03:10:48Z
2022-01-01T01:12:21Z,42.805,6.029,13.3000,4.60019,2470.203,2022-1-01T03:13:51Z
2022-01-01T01:15:25Z,42.805,6.029,13.2996,4.60019,2470.25,2022-1-01T03:16:54Z
2022-01-01T01:18:28Z,42.805,6.029,13.3004,4.60020,2470.227,2022-1-01T03:19:57Z
2022-01-01T01:21:31Z,42.805,6.029,13.3003,4.60021,2470.227,2022-1-01T03:23:01Z
2022-01-01T01:24:34Z,42.805,6.029,13.2999,4.60021,2470.25,2022-1-01T03:26:04Z
2022-01-01T01:27:37Z,42.805,6.029,13.2997,4.60019,2470.264,2022-1-01T03:29:07Z
2022-01-01T01:30:40Z,42.805,6.029,13.2999,4.60019,2470.273,2022-1-01T03:32:10Z
2022-01-01T01:33:43Z,42.805,6.029,13.2998,4.60020,2470.273,2022-1-01T03:35:13Z
2022-01-01T01:36:46Z,42.805,6.029,13.2999,4.60019,2470.25,2022-1-01T03:38:16Z
2022-01-01T01:39:49Z,42.805,6.029,13.2998,4.60022,2470.264,2022-1-01T03:41:19Z
2022-01-01T01:42:53Z,42.805,6.029,13.2997,4.60019,2470.273,2022-1-01T03:44:22Z
2022-01-01T01:45:56Z,42.805,6.029,13.3000,4.60020,2470.273,2022-1-01T03:47:26Z
2022-01-01T01:48:59Z,42.805,6.029,13.3000,4.60019,2470.227,2022-1-01T03:50:29Z
2022-01-01T01:52:02Z,42.805,6.029,13.2994,4.60021,2470.297,2022-1-01T03:53:32Z
2022-01-01T01:55:05Z,42.805,6.029,13.3000,4.60022,2470.273,2022-1-01T03:56:35Z
2022-01-01T01:58:08Z,42.805,6.029,13.2999,4.60021,2470.273,2022-1-01T03:59:38Z
2022-01-01T02:01:11Z,42.805,6.029,13.2998,4.60022,2470.273,2022-1-01T04:02:41Z
2022-01-01T02:04:14Z,42.805,6.029,13.3000,4.60021,2470.273,2022-1-01T04:05:44Z
2022-01-01T02:07:18Z,42.805,6.029,13.2998,4.60024,2470.31,2022-1-01T04:08:47Z
2022-01-01T02:10:21Z,42.805,6.029,13.3006,4.60021,2470.26,2022-1-01T04:11:51Z
2022-01-01T02:13:24Z,42.805,6.029,13.2997,4.60021,2470.287,2022-1-01T04:14:54Z
2022-01-01T02:16:27Z,42.805,6.029,13.2997,4.60023,2470.287,2022-1-01T04:17:57Z
2022-01-01T02:19:30Z,42.805,6.029,13.3003,4.60023,2470.273,2022-1-01T04:21:00Z
2022-01-01T02:22:33Z,42.805,6.029,13.2997,4.60020,2470.343,2022-1-01T04:24:03Z
2022-01-01T02:25:36Z,42.805,6.029,13.3000,4.60022,2470.273,2022-1-01T04:27:06Z
2022-01-01T02:28:39Z,42.805,6.029,13.2998,4.60020,2470.297,2022-1-01T04:30:09Z
2022-01-01T02:31:43Z,42.805,6.029,13.2997,4.60026,2470.334,2022-1-01T04:33:12Z
2022-01-01T02:34:46Z,42.805,6.029,13.3000,4.60019,2470.32,2022-1-01T04:36:15Z
2022-01-01T02:37:49Z,42.805,6.029,13.2998,4.60019,2470.297,2022-1-01T04:39:19Z
2022-01-01T02:40:52Z,42.805,6.029,13.2998,4.60021,2470.297,2022-1-01T04:42:22Z
2022-01-01T02:43:55Z,42.805,6.029,13.3000,4.60024,2470.32,2022-1-01T04:45:25Z
2022-01-01T02:46:58Z,42.805,6.029,13.2994,4.60021,2470.343,2022-1-01T04:48:28Z
2022-01-01T02:50:01Z,42.805,6.029,13.2996,4.60020,2470.343,2022-1-01T04:51:31Z
2022-01-01T02:53:04Z,42.805,6.029,13.2998,4.60021,2470.334,2022-1-01T04:54:34Z
2022-01-01T02:56:07Z,42.805,6.029,13.2998,4.60021,2470.357,2022-1-01T04:57:37Z
2022-01-01T02:59:11Z,42.805,6.029,13.2999,4.60021,2470.32,2022-1-01T05:00:40Z
2022-01-01T03:02:14Z,42.805,6.029,13.2997,4.60022,2470.343,2022-1-01T05:03:44Z
2022-01-01T03:05:17Z,42.805,6.029,13.2998,4.60021,2470.366,2022-1-01T05:06:47Z
2022-01-01T03:08:20Z,42.805,6.029,13.3001,4.60020,2470.32,2022-1-01T05:09:50Z
2022-01-01T03:11:23Z,42.805,6.029,13.2996,4.60022,2470.404,2022-1-01T05:12:53Z
2022-01-01T03:14:26Z,42.805,6.029,13.2998,4.60020,2470.343,2022-1-01T05:15:56Z
2022-01-01T03:17:29Z,42.805,6.029,13.2996,4.60020,2470.366,2022-1-01T05:18:59Z
2022-01-01T03:20:32Z,42.805,6.029,13.2995,4.60021,2470.357,2022-1-01T05:22:02Z
2022-01-01T03:23:36Z,42.805,6.029,13.2993,4.60021,2470.357,2022-1-01T05:25:05Z
2022-01-01T03:26:39Z,42.805,6.029,13.2998,4.60021,2470.366,2022-1-01T05:28:08Z
2022-01-01T03:29:42Z,42.805,6.029,13.3002,4.60020,2470.38,2022-1-01T05:31:12Z
2022-01-01T03:32:45Z,42.805,6.029,13.2999,4.60024,2470.404,2022-1-01T05:34:15Z
2022-01-01T03:35:48Z,42.805,6.029,13.2998,4.60021,2470.38,2022-1-01T05:37:18Z
2022-01-01T03:38:51Z,42.805,6.029,13.3002,4.60021,2470.39,2022-1-01T05:40:21Z
2022-01-01T03:41:54Z,42.805,6.029,13.2998,4.60020,2470.404,2022-1-01T05:43:24Z
2022-01-01T03:44:57Z,42.805,6.029,13.3001,4.60021,2470.413,2022-1-01T05:46:27Z
2022-01-01T03:48:00Z,42.805,6.029,13.3000,4.60021,2470.437,2022-1-01T05:49:30Z
2022-01-01T03:51:04Z,42.805,6.029,13.2998,4.60023,2470.39,2022-1-01T05:52:33Z
2022-01-01T03:54:07Z,42.805,6.029,13.2999,4.60024,2470.413,2022-1-01T05:55:37Z
2022-01-01T03:57:10Z,42.805,6.029,13.2998,4.60021,2470.399,2022-1-01T05:58:40Z
2022-01-01T04:00:13Z,42.805,6.029,13.2996,4.60021,2470.39,2022-1-01T06:01:43Z
2022-01-01T04:03:16Z,42.805,6.029,13.2998,4.60021,2470.437,2022-1-01T06:04:46Z
2022-01-01T04:06:19Z,42.805,6.029,13.2996,4.60021,2470.45,2022-1-01T06:07:49Z
2022-01-01T04:09:22Z,42.805,6.029,13.3000,4.60022,2470.46,2022-1-01T06:10:52Z
2022-01-01T04:12:25Z,42.805,6.029,13.2998,4.60021,2470.46,2022-1-01T06:13:55Z
2022-01-01T04:15:29Z,42.805,6.029,13.3000,4.60021,2470.413,2022-1-01T06:16:58Z
2022-01-01T04:18:32Z,42.805,6.029,13.3000,4.60021,2470.413,2022-1-01T06:20:01Z
2022-01-01T04:21:35Z,42.805,6.029,13.2998,4.60021,2470.45,2022-1-01T06:23:05Z
2022-01-01T04:24:38Z,42.805,6.029,13.3000,4.60022,2470.437,2022-1-01T06:26:08Z
2022-01-01T04:27:41Z,42.805,6.029,13.2996,4.60022,2470.45,2022-1-01T06:29:11Z
2022-01-01T04:30:44Z,42.805,6.029,13.3000,4.60021,2470.474,2022-1-01T06:32:14Z
2022-01-01T04:33:47Z,42.805,6.029,13.3002,4.60021,2470.46,2022-1-01T06:35:17Z
2022-01-01T04:36:50Z,42.805,6.029,13.3000,4.60021,2470.474,2022-1-01T06:38:20Z
2022-01-01T04:39:53Z,42.805,6.029,13.2996,4.60023,2470.413,2022-1-01T06:41:23Z
2022-01-01T04:42:57Z,42.805,6.029,13.2998,4.60021,2470.437,2022-1-01T06:44:26Z
2022-01-01T04:46:00Z,42.805,6.029,13.2996,4.60021,2470.46,2022-1-01T06:47:30Z
2022-01-01T04:49:03Z,42.805,6.029,13.2998,4.60022,2470.437,2022-1-01T06:50:33Z
2022-01-01T04:52:06Z,42.805,6.029,13.2998,4.60021,2470.483,2022-1-01T06:53:36Z
2022-01-01T04:55:09Z,42.805,6.029,13.3000,4.60021,2470.437,2022-1-01T06:56:39Z
2022-01-01T04:58:12Z,42.805,6.029,13.2999,4.60022,2470.46,2022-1-01T06:59:42Z
2022-01-01T05:01:15Z,42.805,6.029,13.2999,4.60021,2470.46,2022-1-01T07:02:45Z
2022-01-01T05:04:18Z,42.805,6.029,13.2998,4.60021,2470.46,2022-1-01T07:05:48Z
2022-01-01T05:07:22Z,42.805,6.029,13.2998,4.60021,2470.483,2022-1-01T07:08:51Z
2022-01-01T05:10:25Z,42.805,6.029,13.3000,4.60021,2470.437,2022-1-01T07:11:54Z
2022-01-01T05:13:28Z,42.805,6.029,13.2999,4.60023,2470.483,2022-1-01T07:14:58Z
2022-01-01T05:16:31Z,42.805,6.029,13.2999,4.60024,2470.507,2022-1-01T07:18:01Z
2022-01-01T05:19:34Z,42.805,6.029,13.3004,4.60021,2470.474,2022-1-01T07:21:04Z
2022-01-01T05:22:37Z,42.805,6.029,13.2995,4.60024,2470.474,2022-1-01T07:24:07Z
2022-01-01T05:25:40Z,42.805,6.029,13.2995,4.60020,2470.46,2022-1-01T07:27:10Z
2022-01-01T05:28:43Z,42.805,6.029,13.2999,4.60023,2470.497,2022-1-01T07:30:13Z
2022-01-01T05:31:46Z,42.805,6.029,13.2998,4.60021,2470.52,2022-1-01T07:33:16Z
2022-01-01T05:34:50Z,42.805,6.029,13.2995,4.60022,2470.483,2022-1-01T07:36:19Z
2022-01-01T05:37:53Z,42.805,6.029,13.2998,4.60021,2470.483,2022-1-01T07:39:23Z
2022-01-01T05:40:56Z,42.805,6.029,13.3000,4.60021,2470.507,2022-1-01T07:42:26Z
2022-01-01T05:43:59Z,42.805,6.029,13.2999,4.60021,2470.497,2022-1-01T07:45:29Z
2022-01-01T05:47:02Z,42.805,6.029,13.2998,4.60022,2470.507,2022-1-01T07:48:32Z
2022-01-01T05:50:05Z,42.805,6.029,13.2999,4.60023,2470.46,2022-1-01T07:51:35Z
2022-01-01T05:53:08Z,42.805,6.029,13.3001,4.60021,2470.483,2022-1-01T07:54:38Z
2022-01-01T05:56:11Z,42.805,6.029,13.2993,4.60022,2470.507,2022-1-01T07:57:41Z
2022-01-01T05:59:15Z,42.805,6.029,13.3000,4.60021,2470.497,2022-1-01T08:00:44Z
2022-01-01T06:02:18Z,42.805,6.029,13.2999,4.60024,2470.507,2022-1-01T08:03:47Z
2022-01-01T06:05:21Z,42.805,6.029,13.2993,4.60023,2470.497,2022-1-01T08:06:51Z
2022-01-01T06:08:24Z,42.805,6.029,13.2998,4.60026,2470.46,2022-1-01T08:09:54Z
2022-01-01T06:11:27Z,42.805,6.029,13.2997,4.60021,2470.483,2022-1-01T08:12:57Z
2022-01-01T06:14:30Z,42.805,6.029,13.2998,4.60021,2470.507,2022-1-01T08:16:00Z
2022-01-01T06:17:33Z,42.805,6.029,13.2996,4.60021,2470.483,2022-1-01T08:19:03Z
2022-01-01T06:20:36Z,42.805,6.029,13.3000,4.60021,2470.52,2022-1-01T08:22:06Z
2022-01-01T06:23:39Z,42.805,6.029,13.2998,4.60021,2470.497,2022-1-01T08:25:09Z
2022-01-01T06:26:43Z,42.805,6.029,13.2995,4.60021,2470.497,2022-1-01T08:28:12Z
2022-01-01T06:29:46Z,42.805,6.029,13.2998,4.60021,2470.483,2022-1-01T08:31:16Z
